[[{"header":{"parameterUnit":"m.s-1","parameterCategory":1,"la1":30.2991,"la2":30.254,"lo1":-89.0895,"lo2":-89.0444,"dy":0.0017,"dx":0.0017,"nx":28,"ny":28,"refTime":"2023-09-24T09:00:00:Z","depth":0,"parameterNumber":2,"parameterNumberName":"U-component_of_WINDS"},"data":[0,0,0,0,0,0,0,0,0,0,0,0,0,0,0,0,0,0,0,0,0,0,0,0,0,0,0,0,0,0,0,0,0,0,0,0,0,0,0,0,0,0,0,0,0,0,0,0,0,0,0,0,0,0,0,0,0,0,0.4532,0.4531,0,0.4495,0.4495,0.4494,0.4487,0.4487,0.4488,0.4488,0.445,0.4449,0.4448,0,0,0,0,0,0,0,0,0,0,0,0,0,0.4595,0.4594,0.4532,0.4531,0.4531,0.4495,0.4495,0.4494,0.4487,0.4487,0.4488,0.4488,0.4451,0.4449,0.4448,0,0,0,0,0,0,0,0,0,0,0,0,0,0.4564,0.4594,0.4532,0.4523,0.4522,0.4495,0.4495,0.4494,0.4487,0.4487,0.4488,0.4488,0.4451,0.4449,0.4447,0.4427,0,0,0.4442,0.4441,0,0,0,0,0,0,0,0,0.4566,0.4562,0.4525,0.4524,0.4522,0.4496,0.4503,0.4472,0.4487,0.45,0.4488,0.4488,0.4465,0.4462,0.4454,0.4425,0.4424,0.4441,0.444,0.444,0.4439,0,0,0,0,0,0,0,0.4568,0.4563,0.4517,0.4524,0.4523,0.4521,0.4517,0.4497,0.4481,0.4499,0.4498,0.4494,0.4465,0.4456,0.4453,0.4423,0.4442,0.444,0.4439,0.4438,0.4375,0.4375,0,0,0,0,0,0,0.4572,0.4565,0.4518,0.4516,0.4546,0.4519,0.4515,0.4504,0.4481,0.4478,0.4494,0.4494,0.4459,0.4456,0.4452,0.4426,0.444,0.4438,0.4437,0.4376,0.4375,0.4374,0,0,0,0,0,0,0.4573,0.4568,0.452,0.454,0.4534,0.4518,0.4506,0.4503,0.4495,0.4477,0.4474,0.4488,0.4459,0.4455,0.4433,0.4425,0.4437,0.4435,0.4376,0.4375,0.4375,0.4375,0,0,0,0,0,0,0.4575,0.4568,0.456,0.454,0.4533,0.4502,0.4505,0.4502,0.4491,0.4491,0.4471,0.4468,0.4459,0.4436,0.4431,0.4422,0.4434,0.4377,0.4376,0.4375,0.4375,0.4374,0.4373,0,0,0,0,0,0.4577,0.4562,0.456,0.4554,0.4523,0.4501,0.4497,0.4487,0.4491,0.4483,0.4471,0.4469,0.4427,0.4434,0.4429,0.4419,0.4377,0.4376,0.4375,0.4376,0.4374,0.4373,0,0,0,0,0,0,0.4581,0.4559,0.4557,0.4534,0.452,0.45,0.4489,0.4486,0.447,0.4471,0.4459,0.4455,0.4434,0.4424,0.4433,0.4398,0.4402,0.44,0.4405,0.4403,0.4402,0.4404,0.4432,0,0,0,0,0,0.458,0.4564,0.4545,0.4527,0.452,0.4506,0.4496,0.449,0.4475,0.4468,0.4455,0.444,0.4424,0.4413,0.4397,0.4374,0.4369,0.4365,0.4363,0.4363,0.436,0.4347,0.4345,0.4371,0.4371,0.4371,0,0,0.4576,0.4562,0.4553,0.4528,0.4516,0.4499,0.4501,0.4484,0.4472,0.4466,0.4444,0.4435,0.4417,0.4395,0.4384,0.4386,0.4352,0.4361,0.436,0.4359,0.4346,0.4343,0.4341,0.437,0.437,0.437,0,0,0.4561,0.4549,0.4532,0.452,0.4502,0.4492,0.4489,0.4469,0.4462,0.4441,0.4436,0.4421,0.4393,0.4381,0.4371,0.4351,0.4347,0.4346,0.4339,0.4326,0.4324,0.4322,0.4314,0.4312,0.4344,0.4344,0.4344,0,0.4558,0.4533,0.4524,0.4507,0.4496,0.449,0.4473,0.4462,0.4439,0.4432,0.4434,0.4398,0.4386,0.436,0.4355,0.4348,0.4343,0.4348,0.4325,0.4323,0.4321,0.4314,0.4311,0.4344,0.4344,0.4344,0.4344,0,0.4531,0.4514,0.4503,0.4481,0.4469,0.4452,0.444,0.4429,0.4424,0.4414,0.4392,0.4378,0.4358,0.4352,0.4347,0.4325,0.4327,0.4327,0.4332,0.4319,0.4311,0.4309,0.4343,0.4343,0.4343,0.4344,0,0,0.4517,0.449,0.4486,0.4476,0.4455,0.4442,0.4425,0.4406,0.4396,0.4381,0.4366,0.4342,0.4342,0.4331,0.4324,0.4313,0.4298,0.4315,0.4314,0.4312,0.4273,0.4272,0.4269,0.4296,0.4295,0.4295,0.4274,0,0.4499,0.4468,0.4458,0.4432,0.4416,0.441,0.4395,0.4381,0.4372,0.4357,0.4347,0.433,0.4332,0.4325,0.4313,0.4302,0.429,0.4303,0.4281,0.4281,0.4285,0.4265,0.4264,0.4245,0.4271,0.4271,0.427,0,0.4473,0.4457,0.4429,0.4411,0.4404,0.439,0.4372,0.4358,0.4341,0.4335,0.4322,0.4317,0.4299,0.4304,0.4278,0.4288,0.4279,0.4272,0.4271,0.4268,0.4274,0.4261,0.4239,0.4236,0.4266,0.4266,0.4266,0,0.4465,0.4436,0.4416,0.4408,0.4385,0.4376,0.4366,0.435,0.4339,0.4323,0.4316,0.4298,0.4288,0.4274,0.4264,0.4269,0.4239,0.4244,0.4233,0.4233,0.4226,0.4226,0.4202,0.4221,0.4221,0.4221,0.4221,0,0.4445,0.4428,0.4412,0.4399,0.438,0.437,0.4351,0.4341,0.4327,0.4312,0.4306,0.4292,0.428,0.4264,0.4256,0.4236,0.4232,0.4226,0.4224,0.4226,0.4227,0.4219,0.422,0.4221,0.4221,0.4221,0.4221,0,0.4432,0.4421,0.4398,0.4379,0.4373,0.436,0.4344,0.4331,0.4322,0.4303,0.4298,0.4283,0.4264,0.4253,0.423,0.4224,0.4201,0.42,0.4207,0.4206,0.4195,0.4196,0.4164,0.4159,0.4182,0.4182,0.4182,0,0.442,0.4406,0.4386,0.4376,0.4366,0.4349,0.4338,0.4327,0.4316,0.4296,0.4286,0.4267,0.4251,0.4221,0.4208,0.419,0.4188,0.4178,0.4185,0.4188,0.4187,0.4188,0.4186,0.4177,0.4176,0.4176,0.4176,0,0.4399,0.4394,0.4378,0.436,0.4346,0.4331,0.4317,0.4309,0.4295,0.4283,0.4264,0.4251,0.4227,0.4208,0.4189,0.4179,0.4175,0.4174,0.417,0.4172,0.4176,0.4173,0.4203,0.4175,0.4175,0.4175,0.4175,0.4175,0.4385,0.4373,0.4357,0.4339,0.4327,0.4313,0.43,0.4289,0.4273,0.4252,0.4247,0.4227,0.4211,0.4184,0.4174,0.4158,0.4159,0.4154,0.4153,0.4151,0.4151,0.4179,0.4154,0.4154,0.4154,0.4154,0.4154,0,0.4364,0.4353,0.4336,0.4316,0.4302,0.43,0.4283,0.4272,0.4254,0.4239,0.4224,0.4201,0.4183,0.4169,0.415,0.4139,0.4137,0.4135,0.4135,0.4132,0.4151,0.4156,0.4137,0.4137,0.4137,0.4137,0.4137,0.4137,0.435,0.433,0.4323,0.4295,0.4285,0.4265,0.4255,0.4243,0.4231,0.4206,0.4191,0.4182,0.4167,0.4147,0.413,0.4126,0.4119,0.4116,0.4112,0.4129,0.4131,0.4133,0.4137,0.4115,0.4115,0.4095,0.4095,0.4095]},{"header":{"parameterUnit":"m.s-1","parameterCategory":1,"la1":30.2991,"la2":30.254,"lo1":-89.0895,"lo2":-89.0444,"dy":0.0017,"dx":0.0017,"nx":28,"ny":28,"refTime":"2023-09-24T09:00:00:Z","depth":0,"parameterNumber":3,"parameterNumberName":"V-component_of_WINDS"},"data":[0,0,0,0,0,0,0,0,0,0,0,0,0,0,0,0,0,0,0,0,0,0,0,0,0,0,0,0,0,0,0,0,0,0,0,0,0,0,0,0,0,0,0,0,0,0,0,0,0,0,0,0,0,0,0,0,0,0,2.0486,2.0485,0,2.0473,2.0472,2.0472,2.0475,2.0475,2.0475,2.0476,2.046,2.046,2.0459,0,0,0,0,0,0,0,0,0,0,0,0,0,2.051,2.051,2.0486,2.0485,2.0485,2.0473,2.0472,2.0472,2.0475,2.0475,2.0476,2.0476,2.046,2.046,2.0459,0,0,0,0,0,0,0,0,0,0,0,0,0,2.0498,2.051,2.0486,2.0485,2.0485,2.0473,2.0472,2.0472,2.0475,2.0475,2.0476,2.0476,2.0461,2.046,2.0459,2.0445,0,0,2.0456,2.0455,0,0,0,0,0,0,0,0,2.0499,2.0498,2.0485,2.0485,2.0485,2.0476,2.0475,2.0463,2.0475,2.0479,2.0476,2.0476,2.0465,2.0464,2.046,2.0445,2.0444,2.0456,2.0455,2.0455,2.0454,0,0,0,0,0,0,0,2.05,2.0498,2.048,2.0485,2.0485,2.0485,2.0483,2.0473,2.047,2.0478,2.0479,2.0477,2.0465,2.0461,2.046,2.0444,2.0456,2.0455,2.0454,2.0454,2.0416,2.0415,0,0,0,0,0,0,2.0501,2.0499,2.0481,2.048,2.0493,2.0484,2.0483,2.0478,2.047,2.0469,2.0477,2.0477,2.0463,2.0461,2.0459,2.0443,2.0455,2.0454,2.0453,2.0416,2.0415,2.0415,0,0,0,0,0,0,2.0502,2.05,2.0481,2.0489,2.0487,2.0483,2.0478,2.0478,2.0474,2.0469,2.0468,2.0474,2.0463,2.0461,2.0449,2.0442,2.0453,2.0452,2.0417,2.0416,2.0415,2.0409,0,0,0,0,0,0,2.0502,2.05,2.0495,2.0489,2.0487,2.0472,2.0478,2.0477,2.0473,2.0473,2.0466,2.0465,2.0463,2.045,2.0448,2.0441,2.0452,2.0417,2.0416,2.0415,2.041,2.0409,2.0407,0,0,0,0,0,2.0503,2.0494,2.0495,2.0493,2.0481,2.0471,2.047,2.0468,2.0472,2.0467,2.0464,2.0465,2.0443,2.0449,2.0446,2.0439,2.0417,2.0416,2.0416,2.0411,2.0409,2.0407,0,0,0,0,0,0,2.0498,2.0493,2.0494,2.0483,2.0478,2.0472,2.0465,2.0467,2.046,2.046,2.0458,2.0456,2.0444,2.0441,2.0447,2.0425,2.0431,2.0429,2.0428,2.0426,2.0425,2.0426,2.0451,0,0,0,0,0,2.0496,2.0489,2.0485,2.0475,2.0472,2.0469,2.0465,2.0465,2.0459,2.0456,2.0452,2.0445,2.0437,2.0432,2.0424,2.041,2.0408,2.0403,2.0402,2.0401,2.0399,2.0391,2.0389,2.0412,2.0412,2.0412,0,0,2.0491,2.0487,2.0483,2.0474,2.047,2.0462,2.0467,2.0459,2.0453,2.0455,2.0443,2.044,2.0432,2.0419,2.0413,2.0416,2.0393,2.04,2.0399,2.0398,2.039,2.0387,2.0385,2.0411,2.0411,2.0411,0,0,2.0478,2.0474,2.0466,2.0462,2.0455,2.0454,2.0451,2.0445,2.0443,2.0432,2.0433,2.0425,2.0411,2.0406,2.0401,2.0385,2.0386,2.0383,2.0375,2.0367,2.0365,2.0363,2.0357,2.0355,2.0381,2.0381,2.0381,0,2.0472,2.0461,2.0461,2.0452,2.0448,2.045,2.044,2.0436,2.0427,2.0424,2.0427,2.0409,2.0405,2.039,2.0386,2.0382,2.0379,2.0383,2.0366,2.0364,2.0362,2.0356,2.0354,2.0381,2.0381,2.0381,2.0381,0,2.0454,2.0446,2.0439,2.0432,2.0427,2.0418,2.0415,2.041,2.041,2.0407,2.0395,2.039,2.038,2.0377,2.0377,2.0362,2.0363,2.0366,2.0372,2.036,2.0354,2.0352,2.038,2.0381,2.0381,2.0381,0,0,2.0436,2.0429,2.0426,2.0423,2.0416,2.041,2.0401,2.0392,2.0387,2.0381,2.0373,2.0361,2.0363,2.0358,2.0357,2.035,2.0336,2.0353,2.0353,2.0349,2.0319,2.0316,2.0314,2.0337,2.0337,2.0336,2.0319,0,2.0422,2.0407,2.0406,2.0392,2.0384,2.0386,2.0378,2.0372,2.0369,2.0362,2.0359,2.035,2.0354,2.0351,2.0344,2.034,2.033,2.0341,2.0328,2.0328,2.0329,2.0311,2.0308,2.0292,2.0317,2.0317,2.0316,0,2.0403,2.0397,2.0382,2.0376,2.0373,2.0366,2.0357,2.0351,2.0344,2.0343,2.0337,2.0337,2.0326,2.0332,2.0317,2.0325,2.0319,2.0316,2.0316,2.0314,2.0321,2.0308,2.0287,2.0285,2.0313,2.0313,2.0313,0,2.0391,2.0379,2.0368,2.0365,2.0358,2.0353,2.035,2.0344,2.0339,2.0331,2.0328,2.0319,2.0314,2.0307,2.0304,2.0309,2.0289,2.0295,2.0286,2.0286,2.0281,2.0282,2.0259,2.0279,2.0279,2.0279,2.0279,0,2.0375,2.0365,2.0363,2.0356,2.0345,2.0345,2.0334,2.0331,2.0325,2.0317,2.0318,2.031,2.0307,2.0299,2.0296,2.0284,2.0282,2.0279,2.0279,2.0279,2.0279,2.0275,2.0276,2.0279,2.0279,2.0279,2.0279,0,2.0359,2.0358,2.0346,2.0341,2.0339,2.0331,2.0326,2.0319,2.0316,2.0306,2.0304,2.0299,2.0289,2.0286,2.0274,2.0272,2.0257,2.0258,2.026,2.0259,2.025,2.0251,2.0224,2.022,2.0243,2.0243,2.0243,0,2.0349,2.0342,2.0335,2.033,2.0327,2.0319,2.0314,2.0313,2.0307,2.0299,2.0293,2.0283,2.0275,2.0259,2.0254,2.0245,2.0244,2.0236,2.0243,2.0243,2.0243,2.0244,2.0242,2.0234,2.0234,2.0234,2.0233,0,2.033,2.0329,2.0322,2.0315,2.0309,2.0303,2.0297,2.0292,2.029,2.0283,2.0274,2.0268,2.0255,2.0245,2.0235,2.0231,2.0231,2.0231,2.0229,2.0228,2.0229,2.0228,2.0255,2.0232,2.0232,2.0232,2.0232,2.0232,2.0316,2.0309,2.0304,2.0296,2.0291,2.0286,2.0279,2.0276,2.0268,2.0258,2.0258,2.0247,2.024,2.0227,2.0222,2.0212,2.0215,2.0211,2.021,2.0209,2.0208,2.0232,2.0211,2.0211,2.0211,2.0211,2.0211,0,2.0296,2.0293,2.0286,2.0277,2.0271,2.0273,2.0266,2.026,2.0251,2.0245,2.0237,2.0225,2.0216,2.021,2.02,2.0194,2.0193,2.0191,2.0191,2.019,2.0207,2.021,2.0191,2.0191,2.0191,2.0191,2.0191,2.0191,2.0285,2.0274,2.0273,2.0259,2.0256,2.0246,2.0242,2.0236,2.0231,2.0218,2.021,2.0207,2.0201,2.019,2.0181,2.0179,2.0175,2.0172,2.0171,2.0187,2.0189,2.019,2.0193,2.0171,2.0171,2.0154,2.0154,2.0154]}]]